Saint Bonnet de Bellac- Haute Vienne - France
Donnes mto: mardi, 21/02/2012
Date Horaire Temp. E. Hum. E. P.atmo. Pluie Vent Direction Direction Ensoleilleme Solaire P. de rose Temp au vent Rafales
21/02/2012 00:00 -3,4 C 78 % 1030,8 hPa 0,0 mm 0,0 km/h (0 Bft) N-NE 22 0 min 0 W/m -6,7 C -3,4 C 0,0 km/h (0 Bft)
21/02/2012 00:10 -3,6 C 78 % 1030,7 hPa 0,0 mm 0,0 km/h (0 Bft) N-NE 22 0 min 0 W/m -6,9 C -3,6 C 0,0 km/h (0 Bft)
21/02/2012 00:20 -3,7 C 78 % 1030,8 hPa 0,0 mm 0,0 km/h (0 Bft) N-NE 22 0 min 0 W/m -7,0 C -3,7 C 0,0 km/h (0 Bft)
21/02/2012 00:30 -3,7 C 79 % 1030,7 hPa 0,0 mm 0,0 km/h (0 Bft) N-NO 337 0 min 0 W/m -6,8 C -3,7 C 0,0 km/h (0 Bft)
21/02/2012 00:40 -3,8 C 79 % 1030,8 hPa 0,0 mm 0,0 km/h (0 Bft) N 360 0 min 0 W/m -6,9 C -3,8 C 0,0 km/h (0 Bft)
21/02/2012 00:50 -3,9 C 79 % 1030,7 hPa 0,0 mm 0,7 km/h (0 Bft) N 360 0 min 0 W/m -7,0 C -3,9 C 2,9 km/h (1 Bft)
21/02/2012 01:00 -3,9 C 80 % 1030,7 hPa 0,0 mm 0,0 km/h (0 Bft) N 360 0 min 0 W/m -6,8 C -3,9 C 0,0 km/h (0 Bft)
21/02/2012 01:10 -4,0 C 80 % 1030,7 hPa 0,0 mm 0,0 km/h (0 Bft) N 360 0 min 0 W/m -6,9 C -4,0 C 0,0 km/h (0 Bft)
21/02/2012 01:20 -4,2 C 80 % 1030,7 hPa 0,0 mm 0,0 km/h (0 Bft) N 360 0 min 0 W/m -7,1 C -4,2 C 0,0 km/h (0 Bft)
21/02/2012 01:30 -4,2 C 81 % 1030,6 hPa 0,0 mm 0,0 km/h (0 Bft) N 360 0 min 0 W/m -7,0 C -4,2 C 0,0 km/h (0 Bft)
21/02/2012 01:40 -4,2 C 81 % 1030,6 hPa 0,0 mm 0,0 km/h (0 Bft) N-NE 22 0 min 0 W/m -7,0 C -4,2 C 0,0 km/h (0 Bft)
21/02/2012 01:50 -4,2 C 81 % 1030,6 hPa 0,0 mm 0,0 km/h (0 Bft) N-NE 22 0 min 0 W/m -7,0 C -4,2 C 0,0 km/h (0 Bft)
21/02/2012 02:02 -4,2 C 81 % 1030,6 hPa 0,0 mm 0,0 km/h (0 Bft) N 360 0 min 0 W/m -7,0 C -4,2 C 0,0 km/h (0 Bft)
21/02/2012 02:10 -4,4 C 82 % 1030,6 hPa 0,0 mm 0,0 km/h (0 Bft) N 360 0 min 0 W/m -7,0 C -4,4 C 0,0 km/h (0 Bft)
21/02/2012 02:20 -4,6 C 82 % 1030,4 hPa 0,0 mm 0,0 km/h (0 Bft) N 360 0 min 0 W/m -7,2 C -4,6 C 0,0 km/h (0 Bft)
21/02/2012 02:30 -4,7 C 82 % 1030,5 hPa 0,0 mm 0,0 km/h (0 Bft) N 360 0 min 0 W/m -7,3 C -4,7 C 0,0 km/h (0 Bft)
21/02/2012 02:40 -4,7 C 82 % 1030,4 hPa 0,0 mm 0,0 km/h (0 Bft) NE 45 0 min 0 W/m -7,3 C -4,7 C 0,0 km/h (0 Bft)
21/02/2012 02:50 -4,6 C 83 % 1030,4 hPa 0,0 mm 0,0 km/h (0 Bft) N-NE 22 0 min 0 W/m -7,0 C -4,6 C 0,0 km/h (0 Bft)
21/02/2012 03:00 -4,7 C 83 % 1030,3 hPa 0,0 mm 0,0 km/h (0 Bft) NE 45 0 min 0 W/m -7,1 C -4,7 C 0,0 km/h (0 Bft)
21/02/2012 03:10 -4,6 C 84 % 1030,1 hPa 0,0 mm 0,7 km/h (0 Bft) N-NE 22 0 min 0 W/m -6,9 C -4,6 C 3,6 km/h (1 Bft)
21/02/2012 03:20 -4,6 C 84 % 1029,9 hPa 0,0 mm 0,0 km/h (0 Bft) N-NE 22 0 min 0 W/m -6,9 C -4,6 C 0,0 km/h (0 Bft)
21/02/2012 03:30 -4,8 C 84 % 1029,8 hPa 0,0 mm 0,0 km/h (0 Bft) E-SE 112 0 min 0 W/m -7,1 C -4,8 C 0,0 km/h (0 Bft)
21/02/2012 03:40 -4,7 C 85 % 1029,7 hPa 0,0 mm 1,1 km/h (1 Bft) N-NE 22 0 min 0 W/m -6,8 C -4,7 C 4,0 km/h (1 Bft)
21/02/2012 03:50 -4,6 C 85 % 1029,7 hPa 0,0 mm 0,0 km/h (0 Bft) NE 45 0 min 0 W/m -6,7 C -4,6 C 0,0 km/h (0 Bft)
21/02/2012 04:00 -4,6 C 85 % 1029,7 hPa 0,0 mm 0,0 km/h (0 Bft) N-NE 22 0 min 0 W/m -6,7 C -4,6 C 0,0 km/h (0 Bft)
21/02/2012 04:10 -4,6 C 85 % 1029,6 hPa 0,0 mm 0,0 km/h (0 Bft) N-NE 22 0 min 0 W/m -6,7 C -4,6 C 0,0 km/h (0 Bft)
21/02/2012 04:20 -4,6 C 85 % 1029,6 hPa 0,0 mm 0,0 km/h (0 Bft) E 90 0 min 0 W/m -6,7 C -4,6 C 0,0 km/h (0 Bft)
21/02/2012 04:30 -4,8 C 85 % 1029,6 hPa 0,0 mm 0,0 km/h (0 Bft) E 90 0 min 0 W/m -6,9 C -4,8 C 0,0 km/h (0 Bft)
21/02/2012 04:40 -4,9 C 86 % 1029,6 hPa 0,0 mm 0,0 km/h (0 Bft) SE 135 0 min 0 W/m -6,9 C -4,9 C 0,0 km/h (0 Bft)
21/02/2012 04:50 -5,0 C 86 % 1029,6 hPa 0,0 mm 0,0 km/h (0 Bft) E-SE 112 0 min 0 W/m -7,0 C -5,0 C 0,0 km/h (0 Bft)
21/02/2012 05:00 -4,7 C 86 % 1029,6 hPa 0,0 mm 0,4 km/h (0 Bft) E 90 0 min 0 W/m -6,7 C -4,7 C 0,4 km/h (0 Bft)
21/02/2012 05:10 -4,7 C 86 % 1029,5 hPa 0,0 mm 0,0 km/h (0 Bft) E 90 0 min 0 W/m -6,7 C -4,7 C 0,0 km/h (0 Bft)
21/02/2012 05:20 -4,8 C 86 % 1029,6 hPa 0,0 mm 0,0 km/h (0 Bft) E 90 0 min 0 W/m -6,8 C -4,8 C 0,0 km/h (0 Bft)
21/02/2012 05:30 -5,1 C 86 % 1029,6 hPa 0,0 mm 0,0 km/h (0 Bft) E-SE 112 0 min 0 W/m -7,1 C -5,1 C 0,0 km/h (0 Bft)
21/02/2012 05:40 -5,2 C 86 % 1029,6 hPa 0,0 mm 0,0 km/h (0 Bft) E-NE 67 0 min 0 W/m -7,2 C -5,2 C 0,0 km/h (0 Bft)
21/02/2012 05:50 -5,2 C 86 % 1029,5 hPa 0,0 mm 0,0 km/h (0 Bft) E-NE 67 0 min 0 W/m -7,2 C -5,2 C 0,0 km/h (0 Bft)
21/02/2012 06:00 -5,1 C 86 % 1029,5 hPa 0,0 mm 0,0 km/h (0 Bft) N-NE 22 0 min 0 W/m -7,1 C -5,1 C 0,0 km/h (0 Bft)
21/02/2012 06:10 -5,2 C 86 % 1029,5 hPa 0,0 mm 0,0 km/h (0 Bft) NE 45 0 min 0 W/m -7,2 C -5,2 C 0,0 km/h (0 Bft)
21/02/2012 06:20 -5,4 C 86 % 1029,6 hPa 0,0 mm 0,0 km/h (0 Bft) NE 45 0 min 0 W/m -7,4 C -5,4 C 0,0 km/h (0 Bft)
21/02/2012 06:30 -5,6 C 86 % 1029,6 hPa 0,0 mm 0,0 km/h (0 Bft) NE 45 0 min 0 W/m -7,6 C -5,6 C 0,0 km/h (0 Bft)
21/02/2012 06:40 -5,9 C 86 % 1029,7 hPa 0,0 mm 0,0 km/h (0 Bft) NE 45 0 min 0 W/m -7,9 C -5,9 C 0,0 km/h (0 Bft)
21/02/2012 06:50 -6,1 C 86 % 1029,8 hPa 0,0 mm 0,0 km/h (0 Bft) N 360 0 min 0 W/m -8,0 C -6,1 C 0,0 km/h (0 Bft)
21/02/2012 07:00 -6,2 C 86 % 1029,7 hPa 0,0 mm 0,0 km/h (0 Bft) N-NE 22 0 min 0 W/m -8,1 C -6,2 C 0,0 km/h (0 Bft)
21/02/2012 07:10 -6,1 C 86 % 1029,7 hPa 0,0 mm 0,0 km/h (0 Bft) N-NE 22 0 min 0 W/m -8,0 C -6,1 C 0,0 km/h (0 Bft)
21/02/2012 07:20 -6,1 C 86 % 1029,7 hPa 0,0 mm 0,0 km/h (0 Bft) N-NE 22 0 min 0 W/m -8,0 C -6,1 C 0,0 km/h (0 Bft)
21/02/2012 07:30 -6,0 C 86 % 1029,7 hPa 0,0 mm 0,0 km/h (0 Bft) NE 45 0 min 0 W/m -8,0 C -6,0 C 0,0 km/h (0 Bft)
21/02/2012 07:40 -6,1 C 86 % 1029,7 hPa 0,0 mm 0,0 km/h (0 Bft) NE 45 0 min 0 W/m -8,0 C -6,1 C 0,0 km/h (0 Bft)
21/02/2012 07:50 -6,1 C 86 % 1029,7 hPa 0,0 mm 0,0 km/h (0 Bft) E-NE 67 0 min 0 W/m -8,0 C -6,1 C 0,0 km/h (0 Bft)
21/02/2012 08:00 -6,1 C 87 % 1029,8 hPa 0,0 mm 0,0 km/h (0 Bft) E-NE 67 0 min 0 W/m -7,9 C -6,1 C 0,0 km/h (0 Bft)
21/02/2012 08:10 -6,1 C 87 % 1029,8 hPa 0,0 mm 0,0 km/h (0 Bft) E-SE 112 2 min 0 W/m -7,9 C -6,1 C 0,0 km/h (0 Bft)
21/02/2012 08:20 -6,1 C 87 % 1029,9 hPa 0,0 mm 0,0 km/h (0 Bft) NE 45 2 min 0 W/m -7,9 C -6,1 C 0,0 km/h (0 Bft)
21/02/2012 08:30 -6,1 C 87 % 1030,0 hPa 0,0 mm 0,0 km/h (0 Bft) NE 45 2 min 0 W/m -7,9 C -6,1 C 0,0 km/h (0 Bft)
21/02/2012 08:40 -5,9 C 87 % 1030,1 hPa 0,0 mm 0,0 km/h (0 Bft) E-NE 67 2 min 0 W/m -7,7 C -5,9 C 0,0 km/h (0 Bft)
21/02/2012 08:50 -5,2 C 89 % 1030,2 hPa 0,0 mm 0,0 km/h (0 Bft) E-NE 67 2 min 0 W/m -6,7 C -5,2 C 0,0 km/h (0 Bft)
21/02/2012 09:00 -4,2 C 89 % 1030,2 hPa 0,0 mm 0,0 km/h (0 Bft) N 360 2 min 0 W/m -5,7 C -4,2 C 0,0 km/h (0 Bft)
21/02/2012 09:10 -3,2 C 89 % 1030,4 hPa 0,0 mm 0,0 km/h (0 Bft) E 90 2 min 0 W/m -4,7 C -3,2 C 0,0 km/h (0 Bft)
21/02/2012 09:20 -2,2 C 89 % 1030,5 hPa 0,0 mm 0,0 km/h (0 Bft) E 90 2 min 0 W/m -3,8 C -2,2 C 0,0 km/h (0 Bft)
21/02/2012 09:30 -1,2 C 88 % 1030,5 hPa 0,0 mm 0,0 km/h (0 Bft) E 90 2 min 0 W/m -2,9 C -1,2 C 0,0 km/h (0 Bft)
21/02/2012 09:40 -0,5 C 85 % 1030,6 hPa 0,0 mm 0,0 km/h (0 Bft) E 90 2 min 0 W/m -2,7 C -0,5 C 0,0 km/h (0 Bft)
21/02/2012 09:50 0,3 C 84 % 1030,7 hPa 0,0 mm 0,0 km/h (0 Bft) E 90 2 min 0 W/m -2,1 C 0,3 C 0,0 km/h (0 Bft)
21/02/2012 10:00 1,2 C 82 % 1030,8 hPa 0,0 mm 0,0 km/h (0 Bft) E 90 2 min 0 W/m -1,5 C 1,2 C 0,0 km/h (0 Bft)
21/02/2012 10:10 1,8 C 80 % 1030,9 hPa 0,0 mm 0,0 km/h (0 Bft) E-NE 67 2 min 0 W/m -1,3 C 1,8 C 0,0 km/h (0 Bft)
21/02/2012 10:20 2,6 C 78 % 1031,0 hPa 0,0 mm 0,0 km/h (0 Bft) E-NE 67 2 min 0 W/m -0,8 C 2,6 C 0,0 km/h (0 Bft)
21/02/2012 10:30 3,3 C 75 % 1031,1 hPa 0,0 mm 0,0 km/h (0 Bft) E-NE 67 2 min 0 W/m -0,7 C 3,3 C 0,0 km/h (0 Bft)
21/02/2012 10:40 3,8 C 74 % 1031,0 hPa 0,0 mm 0,0 km/h (0 Bft) E-NE 67 2 min 0 W/m -0,4 C 3,8 C 2,9 km/h (1 Bft)
21/02/2012 10:50 4,4 C 73 % 1031,1 hPa 0,0 mm 0,0 km/h (0 Bft) E-NE 67 2 min 0 W/m -0,0 C 4,4 C 0,0 km/h (0 Bft)
21/02/2012 11:00 5,2 C 71 % 1031,4 hPa 0,0 mm 0,0 km/h (0 Bft) E-NE 67 2 min 0 W/m 0,4 C 5,2 C 0,0 km/h (0 Bft)
21/02/2012 11:10 5,8 C 69 % 1031,3 hPa 0,0 mm 0,0 km/h (0 Bft) E-NE 67 2 min 0 W/m 0,6 C 5,8 C 0,0 km/h (0 Bft)
21/02/2012 11:20 6,3 C 68 % 1031,3 hPa 0,0 mm 0,0 km/h (0 Bft) E-NE 67 2 min 0 W/m 0,8 C 6,3 C 0,0 km/h (0 Bft)
21/02/2012 11:30 6,8 C 66 % 1031,4 hPa 0,0 mm 0,0 km/h (0 Bft) E-NE 67 2 min 0 W/m 0,9 C 6,8 C 0,0 km/h (0 Bft)
21/02/2012 11:40 7,3 C 64 % 1031,3 hPa 0,0 mm 2,5 km/h (1 Bft) E-NE 67 2 min 0 W/m 1,0 C 7,3 C 6,5 km/h (2 Bft)
21/02/2012 11:50 7,5 C 63 % 1031,4 hPa 0,0 mm 2,5 km/h (1 Bft) E-NE 67 2 min 0 W/m 0,9 C 7,5 C 2,9 km/h (1 Bft)
21/02/2012 12:00 7,8 C 60 % 1031,3 hPa 0,0 mm 5,0 km/h (1 Bft) NE 45 2 min 0 W/m 0,5 C 7,3 C 9,7 km/h (2 Bft)
21/02/2012 12:10 7,8 C 59 % 1031,3 hPa 0,0 mm 3,6 km/h (1 Bft) E 90 2 min 0 W/m 0,3 C 7,8 C 9,0 km/h (2 Bft)
21/02/2012 12:20 7,9 C 59 % 1031,3 hPa 0,0 mm 6,5 km/h (2 Bft) E-NE 67 2 min 0 W/m 0,4 C 6,9 C 6,5 km/h (2 Bft)
21/02/2012 12:30 7,9 C 58 % 1031,2 hPa 0,0 mm 7,6 km/h (2 Bft) N 360 2 min 0 W/m 0,2 C 6,6 C 11,5 km/h (2 Bft)
21/02/2012 12:40 7,8 C 56 % 1031,1 hPa 0,0 mm 6,5 km/h (2 Bft) NE 45 2 min 0 W/m -0,4 C 6,8 C 7,2 km/h (2 Bft)
21/02/2012 12:50 7,7 C 55 % 1031,1 hPa 0,0 mm 5,4 km/h (2 Bft) NE 45 2 min 0 W/m -0,8 C 7,0 C 9,0 km/h (2 Bft)
21/02/2012 13:00 7,8 C 54 % 1031,0 hPa 0,0 mm 10,4 km/h (2 Bft) NE 45 2 min 0 W/m -0,9 C 5,9 C 15,8 km/h (3 Bft)
21/02/2012 13:10 7,5 C 54 % 1030,9 hPa 0,0 mm 6,5 km/h (2 Bft) N-NE 22 2 min 0 W/m -1,2 C 6,5 C 15,1 km/h (3 Bft)
21/02/2012 13:20 7,6 C 55 % 1030,8 hPa 0,0 mm 4,3 km/h (1 Bft) E-NE 67 2 min 0 W/m -0,9 C 7,6 C 7,6 km/h (2 Bft)
21/02/2012 13:30 7,9 C 54 % 1030,6 hPa 0,0 mm 8,6 km/h (2 Bft) N-NE 22 2 min 0 W/m -0,8 C 6,4 C 12,6 km/h (3 Bft)
21/02/2012 13:40 7,8 C 53 % 1030,5 hPa 0,0 mm 5,8 km/h (2 Bft) NE 45 2 min 0 W/m -1,2 C 7,0 C 11,9 km/h (2 Bft)
21/02/2012 13:50 7,8 C 53 % 1030,4 hPa 0,0 mm 5,4 km/h (2 Bft) NE 45 2 min 0 W/m -1,2 C 7,1 C 7,6 km/h (2 Bft)
21/02/2012 14:00 7,8 C 52 % 1030,6 hPa 0,0 mm 6,5 km/h (2 Bft) E-NE 67 2 min 0 W/m -1,4 C 6,8 C 9,0 km/h (2 Bft)
21/02/2012 14:10 7,8 C 52 % 1030,6 hPa 0,0 mm 10,8 km/h (2 Bft) NE 45 2 min 0 W/m -1,4 C 5,9 C 14,4 km/h (3 Bft)
21/02/2012 14:20 7,9 C 52 % 1030,5 hPa 0,0 mm 5,8 km/h (2 Bft) NE 45 2 min 0 W/m -1,3 C 7,1 C 9,0 km/h (2 Bft)
21/02/2012 14:30 7,9 C 52 % 1030,3 hPa 0,0 mm 7,6 km/h (2 Bft) N-NE 22 2 min 0 W/m -1,3 C 6,6 C 9,0 km/h (2 Bft)
21/02/2012 14:40 8,1 C 52 % 1030,0 hPa 0,0 mm 8,3 km/h (2 Bft) N 360 2 min 0 W/m -1,2 C 6,7 C 11,2 km/h (2 Bft)
21/02/2012 14:50 7,9 C 52 % 1030,0 hPa 0,0 mm 5,8 km/h (2 Bft) NE 45 2 min 0 W/m -1,3 C 7,1 C 9,0 km/h (2 Bft)
21/02/2012 15:00 7,8 C 53 % 1029,8 hPa 0,0 mm 10,1 km/h (2 Bft) NE 45 2 min 0 W/m -1,2 C 6,0 C 10,1 km/h (2 Bft)
21/02/2012 15:10 7,7 C 53 % 1029,9 hPa 0,0 mm 8,3 km/h (2 Bft) N-NE 22 2 min 0 W/m -1,3 C 6,2 C 11,2 km/h (2 Bft)
21/02/2012 15:20 7,5 C 53 % 1029,5 hPa 0,0 mm 7,9 km/h (2 Bft) N-NE 22 2 min 0 W/m -1,4 C 6,1 C 13,0 km/h (3 Bft)
21/02/2012 15:30 7,4 C 54 % 1029,5 hPa 0,0 mm 9,4 km/h (2 Bft) NE 45 2 min 0 W/m -1,3 C 5,6 C 10,1 km/h (2 Bft)
21/02/2012 15:40 7,3 C 55 % 1029,6 hPa 0,0 mm 6,5 km/h (2 Bft) N 360 2 min 0 W/m -1,1 C 6,2 C 10,8 km/h (2 Bft)
21/02/2012 15:50 7,3 C 56 % 1029,6 hPa 0,0 mm 7,6 km/h (2 Bft) NE 45 2 min 0 W/m -0,9 C 5,9 C 16,9 km/h (3 Bft)
21/02/2012 16:00 7,3 C 56 % 1029,5 hPa 0,0 mm 6,8 km/h (2 Bft) E-NE 67 2 min 0 W/m -0,9 C 6,1 C 10,1 km/h (2 Bft)
21/02/2012 16:10 7,2 C 56 % 1029,5 hPa 0,0 mm 10,4 km/h (2 Bft) N-NE 22 2 min 0 W/m -1,0 C 5,2 C 14,4 km/h (3 Bft)
21/02/2012 16:20 7,1 C 56 % 1029,4 hPa 0,0 mm 5,4 km/h (2 Bft) N-NE 22 2 min 0 W/m -1,1 C 6,3 C 7,9 km/h (2 Bft)
21/02/2012 16:30 6,9 C 56 % 1029,2 hPa 0,0 mm 3,6 km/h (1 Bft) N-NE 22 2 min 0 W/m -1,3 C 6,9 C 10,4 km/h (2 Bft)
21/02/2012 16:40 6,7 C 56 % 1029,2 hPa 0,0 mm 6,1 km/h (2 Bft) NE 45 2 min 0 W/m -1,4 C 5,6 C 10,1 km/h (2 Bft)
21/02/2012 16:50 6,5 C 57 % 1029,1 hPa 0,0 mm 5,0 km/h (1 Bft) E 90 2 min 0 W/m -1,4 C 5,8 C 7,2 km/h (2 Bft)
21/02/2012 17:00 6,3 C 57 % 1029,1 hPa 0,0 mm 4,7 km/h (1 Bft) NE 45 2 min 0 W/m -1,6 C 5,7 C 4,7 km/h (1 Bft)
21/02/2012 17:10 6,2 C 58 % 1029,2 hPa 0,0 mm 7,2 km/h (2 Bft) N 360 2 min 0 W/m -1,4 C 4,8 C 10,8 km/h (2 Bft)
21/02/2012 17:20 6,1 C 58 % 1029,2 hPa 0,0 mm 3,6 km/h (1 Bft) NE 45 2 min 0 W/m -1,5 C 6,1 C 3,6 km/h (1 Bft)
21/02/2012 17:30 5,8 C 58 % 1029,3 hPa 0,0 mm 9,0 km/h (2 Bft) NE 45 2 min 0 W/m -1,8 C 3,8 C 13,3 km/h (3 Bft)
21/02/2012 17:40 5,5 C 59 % 1029,1 hPa 0,0 mm 6,5 km/h (2 Bft) N 360 2 min 0 W/m -1,9 C 4,1 C 9,4 km/h (2 Bft)
21/02/2012 17:50 5,2 C 60 % 1029,2 hPa 0,0 mm 5,4 km/h (2 Bft) NE 45 2 min 0 W/m -1,9 C 4,2 C 7,2 km/h (2 Bft)
21/02/2012 18:00 4,8 C 60 % 1029,3 hPa 0,0 mm 2,9 km/h (1 Bft) NE 45 2 min 0 W/m -2,3 C 4,8 C 4,3 km/h (1 Bft)
21/02/2012 18:10 4,5 C 61 % 1029,4 hPa 0,0 mm 6,5 km/h (2 Bft) N-NE 22 2 min 0 W/m -2,4 C 3,0 C 9,4 km/h (2 Bft)
21/02/2012 18:20 4,3 C 61 % 1029,5 hPa 0,0 mm 2,9 km/h (1 Bft) NE 45 0 min 0 W/m -2,5 C 4,3 C 6,5 km/h (2 Bft)
21/02/2012 18:30 3,9 C 61 % 1029,6 hPa 0,0 mm 3,6 km/h (1 Bft) N-NE 22 0 min 0 W/m -2,9 C 3,9 C 6,8 km/h (2 Bft)
21/02/2012 18:40 3,6 C 62 % 1029,7 hPa 0,0 mm 3,6 km/h (1 Bft) NE 45 0 min 0 W/m -3,0 C 3,6 C 4,0 km/h (1 Bft)
21/02/2012 18:50 3,3 C 63 % 1029,7 hPa 0,0 mm 1,4 km/h (1 Bft) E-NE 67 0 min 0 W/m -3,1 C 3,3 C 4,3 km/h (1 Bft)
21/02/2012 19:00 3,1 C 64 % 1029,7 hPa 0,0 mm 3,6 km/h (1 Bft) N-NE 22 0 min 0 W/m -3,0 C 3,1 C 4,3 km/h (1 Bft)
21/02/2012 19:10 2,8 C 64 % 1029,8 hPa 0,0 mm 1,8 km/h (1 Bft) N-NE 22 0 min 0 W/m -3,3 C 2,8 C 4,3 km/h (1 Bft)
21/02/2012 19:20 2,7 C 65 % 1029,7 hPa 0,0 mm 1,8 km/h (1 Bft) NE 45 0 min 0 W/m -3,2 C 2,7 C 3,6 km/h (1 Bft)
21/02/2012 19:30 2,6 C 65 % 1029,7 hPa 0,0 mm 2,9 km/h (1 Bft) N-NE 22 0 min 0 W/m -3,3 C 2,6 C 3,6 km/h (1 Bft)
21/02/2012 19:40 2,3 C 65 % 1029,8 hPa 0,0 mm 2,9 km/h (1 Bft) E-NE 67 0 min 0 W/m -3,6 C 2,3 C 4,3 km/h (1 Bft)
21/02/2012 19:50 2,2 C 65 % 1029,9 hPa 0,0 mm 1,4 km/h (1 Bft) N-NE 22 0 min 0 W/m -3,7 C 2,2 C 4,3 km/h (1 Bft)
21/02/2012 20:00 1,9 C 66 % 1029,8 hPa 0,0 mm 1,1 km/h (1 Bft) N-NE 22 0 min 0 W/m -3,8 C 1,9 C 1,1 km/h (1 Bft)
21/02/2012 20:10 1,8 C 66 % 1029,8 hPa 0,0 mm 0,0 km/h (0 Bft) NE 45 0 min 0 W/m -3,9 C 1,8 C 0,0 km/h (0 Bft)
21/02/2012 20:20 1,5 C 67 % 1029,8 hPa 0,0 mm 0,0 km/h (0 Bft) NE 45 0 min 0 W/m -3,9 C 1,5 C 0,0 km/h (0 Bft)
21/02/2012 20:30 1,3 C 67 % 1029,8 hPa 0,0 mm 2,9 km/h (1 Bft) NE 45 0 min 0 W/m -4,1 C 1,3 C 4,0 km/h (1 Bft)
21/02/2012 20:40 1,1 C 68 % 1029,9 hPa 0,0 mm 1,8 km/h (1 Bft) NE 45 0 min 0 W/m -4,1 C 1,1 C 6,1 km/h (2 Bft)
21/02/2012 20:50 1,1 C 68 % 1030,0 hPa 0,0 mm 3,6 km/h (1 Bft) E-NE 67 0 min 0 W/m -4,1 C 1,1 C 7,6 km/h (2 Bft)
21/02/2012 21:00 0,9 C 68 % 1029,9 hPa 0,0 mm 0,4 km/h (0 Bft) E-NE 67 0 min 0 W/m -4,3 C 0,9 C 3,2 km/h (1 Bft)
21/02/2012 21:10 0,8 C 69 % 1030,0 hPa 0,0 mm 0,0 km/h (0 Bft) N-NE 22 0 min 0 W/m -4,2 C 0,8 C 2,9 km/h (1 Bft)
21/02/2012 21:20 0,6 C 69 % 1030,0 hPa 0,0 mm 0,0 km/h (0 Bft) NE 45 0 min 0 W/m -4,4 C 0,6 C 3,6 km/h (1 Bft)
_ Min-Heure 07:00 14:50 17:40 - 21:20 - - - - 07:00 07:00 20:20
Minimum _ -6,2 C 52 % 1029,1 hPa - 0,0 km/h (0 Bft) - - - - -8,1 C -6,2 C 0,0 km/h (0 Bft)
_ Max-Heure 14:40 09:20 11:50 21:20 14:10 - - 18:10 21:20 11:40 12:10 15:50
Maximum _ 8,1 C 89 % 1031,4 hPa 0,0 mm 10,8 km/h
NE (2 Bft)
- - 2 min 0 W/m 1,0 C 7,8 C 16,9 km/h
NE (3 Bft)
Moyenne _ 0,7 C 72 % 1030,1 hPa #0,0 mm 2,3 km/h (1 Bft) NE - #2:02 h 0 W/m -4,0 C 0,4 C 3,7 km/h (1 Bft)
Saint Bonnet de Bellac- Haute Vienne - France